[[{"header":{"parameterUnit":"m.s-1","parameterCategory":1,"la1":30.2991,"la2":30.254,"lo1":-89.0895,"lo2":-89.0444,"dy":0.0017,"dx":0.0017,"nx":28,"ny":28,"refTime":"2023-09-24T09:00:00:Z","depth":0,"parameterNumber":2,"parameterNumberName":"U-component_of_WINDS"},"data":[0,0,0,0,0,0,0,0,0,0,0,0,0,0,0,0,0,0,0,0,0,0,0,0,0,0,0,0,0,0,0,0,0,0,0,0,0,0,0,0,0,0,0,0,0,0,0,0,0,0,0,0,0,0,0,0,0,0,-3.2853,-3.2853,0,-3.2844,-3.2844,-3.2844,-3.2703,-3.27,-3.2696,-3.2693,-3.2686,-3.2689,-3.2692,0,0,0,0,0,0,0,0,0,0,0,0,0,-3.2749,-3.2751,-3.2853,-3.2853,-3.2853,-3.2844,-3.2844,-3.2844,-3.2704,-3.27,-3.2695,-3.2691,-3.2685,-3.2688,-3.2692,0,0,0,0,0,0,0,0,0,0,0,0,0,-3.2773,-3.2752,-3.2853,-3.2782,-3.2775,-3.2844,-3.2844,-3.2844,-3.2705,-3.27,-3.2694,-3.2689,-3.2683,-3.2688,-3.2693,-3.2829,0,0,-3.2707,-3.2709,0,0,0,0,0,0,0,0,-3.2771,-3.2776,-3.2792,-3.2787,-3.278,-3.2769,-3.2804,-3.2839,-3.2706,-3.2732,-3.2693,-3.2686,-3.2718,-3.2719,-3.273,-3.2829,-3.2829,-3.2707,-3.271,-3.2712,-3.2714,0,0,0,0,0,0,0,-3.277,-3.2776,-3.2849,-3.2793,-3.2785,-3.275,-3.2748,-3.281,-3.2755,-3.2729,-3.2719,-3.272,-3.2713,-3.2725,-3.2728,-3.2829,-3.2707,-3.2711,-3.2714,-3.2716,-3.3039,-3.3044,0,0,0,0,0,0,-3.2778,-3.2776,-3.285,-3.2849,-3.2762,-3.2757,-3.2754,-3.2778,-3.2754,-3.2745,-3.2724,-3.2713,-3.272,-3.2723,-3.2728,-3.2886,-3.2712,-3.2717,-3.2719,-3.3033,-3.304,-3.3046,0,0,0,0,0,0,-3.2776,-3.2786,-3.285,-3.281,-3.2815,-3.2764,-3.2793,-3.2781,-3.2793,-3.275,-3.274,-3.2747,-3.2716,-3.2721,-3.2805,-3.2884,-3.2719,-3.2723,-3.3026,-3.3035,-3.3043,-3.3204,0,0,0,0,0,0,-3.2774,-3.2786,-3.2838,-3.2812,-3.2818,-3.2928,-3.2797,-3.2784,-3.2801,-3.2786,-3.2769,-3.2761,-3.2712,-3.2799,-3.281,-3.2887,-3.2727,-3.3019,-3.303,-3.3041,-3.3191,-3.3217,-3.3239,0,0,0,0,0,-3.2771,-3.2884,-3.2841,-3.2851,-3.2881,-3.2933,-3.2936,-3.2877,-3.2808,-3.2859,-3.2832,-3.2761,-3.2873,-3.2808,-3.282,-3.29,-3.3014,-3.3027,-3.304,-3.3181,-3.3212,-3.3238,0,0,0,0,0,0,-3.2921,-3.2879,-3.2831,-3.2939,-3.2941,-3.2909,-3.2972,-3.2912,-3.2934,-3.2919,-3.2846,-3.2843,-3.2939,-3.2927,-3.2856,-3.303,-3.2931,-3.2947,-3.3034,-3.3064,-3.3087,-3.3088,-3.2731,0,0,0,0,0,-3.2966,-3.3012,-3.2972,-3.3072,-3.3075,-3.3024,-3.3044,-3.2998,-3.2997,-3.2997,-3.2975,-3.2977,-3.3012,-3.3037,-3.3067,-3.3189,-3.3183,-3.3249,-3.3273,-3.3293,-3.3308,-3.337,-3.34,-3.3089,-3.3089,-3.3088,0,0,-3.3062,-3.3044,-3.3077,-3.3101,-3.3097,-3.3145,-3.3025,-3.3081,-3.3116,-3.3005,-3.3083,-3.3068,-3.3065,-3.3168,-3.3212,-3.3161,-3.3392,-3.3309,-3.3325,-3.3329,-3.3387,-3.3416,-3.3442,-3.3098,-3.3096,-3.3095,0,0,-3.3259,-3.3251,-3.3332,-3.333,-3.3324,-3.3289,-3.3309,-3.3286,-3.3271,-3.3348,-3.3265,-3.3306,-3.3369,-3.337,-3.3378,-3.3576,-3.3511,-3.3588,-3.3712,-3.3774,-3.3799,-3.382,-3.389,-3.3916,-3.3602,-3.3603,-3.3603,0,-3.3378,-3.3447,-3.3381,-3.3443,-3.3456,-3.3357,-3.3438,-3.344,-3.3445,-3.3456,-3.3399,-3.3475,-3.3466,-3.3568,-3.3616,-3.3626,-3.3646,-3.3589,-3.38,-3.3821,-3.384,-3.3906,-3.3933,-3.3612,-3.3611,-3.361,-3.3609,0,-3.3593,-3.3643,-3.3709,-3.3716,-3.3736,-3.3808,-3.3753,-3.3781,-3.3734,-3.3705,-3.3784,-3.377,-3.3795,-3.3816,-3.3771,-3.3911,-3.388,-3.3813,-3.3712,-3.388,-3.3941,-3.3966,-3.3625,-3.3622,-3.3619,-3.3617,0,0,-3.3887,-3.3855,-3.388,-3.3882,-3.3868,-3.3905,-3.3972,-3.3996,-3.4022,-3.4028,-3.4083,-3.4137,-3.4075,-3.4085,-3.4039,-3.4094,-3.4251,-3.4019,-3.4018,-3.4063,-3.4405,-3.4455,-3.4486,-3.4208,-3.4212,-3.4216,-3.4405,0,-3.4077,-3.4189,-3.4131,-3.4251,-3.4295,-3.4201,-3.4259,-3.4258,-3.4232,-3.4267,-3.4238,-3.4278,-3.4193,-3.4198,-3.4248,-3.4221,-3.4318,-3.4206,-3.4258,-3.426,-3.4262,-3.4518,-3.4572,-3.4751,-3.4428,-3.4432,-3.4435,0,-3.4315,-3.433,-3.4455,-3.4431,-3.4448,-3.4501,-3.4518,-3.4552,-3.4548,-3.4525,-3.4537,-3.4477,-3.4541,-3.4441,-3.4528,-3.4454,-3.4471,-3.4461,-3.4466,-3.4469,-3.4358,-3.4528,-3.4806,-3.4834,-3.4472,-3.4469,-3.4466,0,-3.4516,-3.4568,-3.4649,-3.4653,-3.4628,-3.4668,-3.466,-3.465,-3.4668,-3.4683,-3.4693,-3.4716,-3.4729,-3.4748,-3.4697,-3.4628,-3.4791,-3.4686,-3.4775,-3.4776,-3.4813,-3.4812,-3.51,-3.4825,-3.4825,-3.4824,-3.4824,0,-3.4735,-3.4814,-3.4739,-3.4789,-3.4875,-3.4807,-3.4895,-3.4876,-3.4868,-3.4913,-3.4833,-3.4877,-3.4806,-3.4842,-3.4803,-3.4881,-3.4887,-3.4871,-3.486,-3.4879,-3.4881,-3.4889,-3.4876,-3.4831,-3.483,-3.4828,-3.4827,0,-3.4974,-3.4927,-3.5008,-3.4978,-3.4972,-3.5037,-3.5011,-3.5056,-3.5025,-3.5082,-3.5092,-3.5043,-3.5082,-3.5033,-3.5067,-3.504,-3.5147,-3.5117,-3.5149,-3.514,-3.5231,-3.5224,-3.5535,-3.5572,-3.5274,-3.5277,-3.5279,0,-3.5118,-3.5176,-3.5152,-3.5175,-3.5172,-3.5211,-3.5228,-3.5164,-3.5186,-3.5185,-3.523,-3.5262,-3.5285,-3.5351,-3.532,-3.5346,-3.5316,-3.5423,-3.5319,-3.5336,-3.5317,-3.5314,-3.532,-3.5444,-3.5448,-3.5451,-3.5453,0,-3.5376,-3.535,-3.5377,-3.5398,-3.5421,-3.5433,-3.544,-3.5464,-3.5397,-3.5426,-3.5464,-3.5481,-3.5516,-3.5549,-3.5566,-3.5558,-3.5495,-3.5486,-3.5508,-3.5528,-3.5544,-3.5536,-3.5207,-3.5479,-3.5477,-3.5475,-3.5473,-3.5472,-3.5572,-3.5619,-3.5609,-3.5643,-3.5641,-3.5649,-3.569,-3.5663,-3.5694,-3.5716,-3.5677,-3.5726,-3.5719,-3.5736,-3.5734,-3.5772,-3.5725,-3.5757,-3.5765,-3.5774,-3.5788,-3.5538,-3.5775,-3.5774,-3.5773,-3.5772,-3.5772,0,-3.5826,-3.5815,-3.5847,-3.5858,-3.5885,-3.5822,-3.5826,-3.5853,-3.5896,-3.5895,-3.5918,-3.5963,-3.5994,-3.5965,-3.599,-3.6026,-3.5998,-3.6035,-3.6032,-3.6031,-3.5828,-3.5806,-3.6057,-3.6057,-3.6057,-3.6057,-3.6057,-3.6057,-3.5962,-3.6039,-3.6011,-3.6086,-3.6074,-3.6121,-3.6128,-3.6135,-3.6134,-3.6187,-3.6212,-3.6192,-3.618,-3.6204,-3.623,-3.622,-3.6233,-3.6281,-3.6262,-3.6073,-3.6045,-3.6018,-3.5998,-3.6285,-3.6285,-3.6461,-3.6463,-3.6464]},{"header":{"parameterUnit":"m.s-1","parameterCategory":1,"la1":30.2991,"la2":30.254,"lo1":-89.0895,"lo2":-89.0444,"dy":0.0017,"dx":0.0017,"nx":28,"ny":28,"refTime":"2023-09-24T09:00:00:Z","depth":0,"parameterNumber":3,"parameterNumberName":"V-component_of_WINDS"},"data":[0,0,0,0,0,0,0,0,0,0,0,0,0,0,0,0,0,0,0,0,0,0,0,0,0,0,0,0,0,0,0,0,0,0,0,0,0,0,0,0,0,0,0,0,0,0,0,0,0,0,0,0,0,0,0,0,0,0,-1.2397,-1.2396,0,-1.2369,-1.2369,-1.2368,-1.2405,-1.2406,-1.2407,-1.2409,-1.2373,-1.237,-1.2368,0,0,0,0,0,0,0,0,0,0,0,0,0,-1.2472,-1.247,-1.2397,-1.2396,-1.2396,-1.2369,-1.2369,-1.2368,-1.2404,-1.2406,-1.2408,-1.2409,-1.2373,-1.2371,-1.2368,0,0,0,0,0,0,0,0,0,0,0,0,0,-1.2441,-1.247,-1.2397,-1.2411,-1.2412,-1.2369,-1.2369,-1.2368,-1.2404,-1.2406,-1.2408,-1.241,-1.2374,-1.2371,-1.2368,-1.2307,0,0,-1.2358,-1.2356,0,0,0,0,0,0,0,0,-1.2443,-1.2438,-1.2409,-1.241,-1.2411,-1.2393,-1.2382,-1.2348,-1.2404,-1.2407,-1.2409,-1.2411,-1.2377,-1.2374,-1.2364,-1.2306,-1.2304,-1.2357,-1.2355,-1.2354,-1.2353,0,0,0,0,0,0,0,-1.2445,-1.2439,-1.2385,-1.2409,-1.241,-1.2416,-1.2414,-1.2376,-1.2381,-1.2407,-1.2409,-1.2406,-1.2378,-1.2367,-1.2363,-1.2304,-1.2357,-1.2355,-1.2352,-1.2351,-1.2191,-1.2189,0,0,0,0,0,0,-1.2446,-1.2441,-1.2386,-1.2385,-1.2432,-1.2413,-1.241,-1.2396,-1.2381,-1.2381,-1.2404,-1.2408,-1.2372,-1.2367,-1.2362,-1.2288,-1.2354,-1.2351,-1.2349,-1.2193,-1.219,-1.2188,0,0,0,0,0,0,-1.2448,-1.2441,-1.2387,-1.2414,-1.2407,-1.241,-1.2393,-1.2395,-1.2384,-1.238,-1.238,-1.2393,-1.2373,-1.2367,-1.2321,-1.2287,-1.2349,-1.2346,-1.2196,-1.2192,-1.2189,-1.2141,0,0,0,0,0,0,-1.245,-1.2441,-1.2421,-1.2413,-1.2406,-1.2349,-1.2391,-1.2393,-1.2379,-1.2383,-1.2369,-1.2368,-1.2374,-1.2325,-1.2317,-1.2284,-1.2344,-1.2199,-1.2194,-1.219,-1.2146,-1.2136,-1.2129,0,0,0,0,0,-1.2452,-1.2407,-1.2419,-1.2413,-1.238,-1.2347,-1.2343,-1.2352,-1.2376,-1.2354,-1.2351,-1.2369,-1.2293,-1.232,-1.2312,-1.2277,-1.2201,-1.2196,-1.2191,-1.2149,-1.2138,-1.2129,0,0,0,0,0,0,-1.2408,-1.2406,-1.242,-1.2372,-1.2359,-1.2353,-1.2325,-1.2341,-1.2319,-1.2324,-1.2335,-1.2331,-1.2281,-1.2275,-1.2305,-1.2216,-1.225,-1.2243,-1.2222,-1.2211,-1.2203,-1.2204,-1.2341,0,0,0,0,0,-1.2394,-1.237,-1.2368,-1.2325,-1.2319,-1.2323,-1.2309,-1.2318,-1.2304,-1.2298,-1.2292,-1.2276,-1.2249,-1.223,-1.2205,-1.2146,-1.2141,-1.2117,-1.2109,-1.2102,-1.2094,-1.2059,-1.2048,-1.2171,-1.2171,-1.2171,0,0,-1.2362,-1.2358,-1.2341,-1.2316,-1.2308,-1.2279,-1.2318,-1.2287,-1.2265,-1.2293,-1.2249,-1.2244,-1.2226,-1.2173,-1.2149,-1.2165,-1.2059,-1.2095,-1.209,-1.2086,-1.2053,-1.2041,-1.2031,-1.2168,-1.2168,-1.2169,0,0,-1.2289,-1.2285,-1.2247,-1.2238,-1.2226,-1.2229,-1.222,-1.2211,-1.2209,-1.2166,-1.2186,-1.2158,-1.2111,-1.2097,-1.2084,-1.2004,-1.2019,-1.1996,-1.195,-1.1916,-1.1906,-1.1898,-1.1866,-1.1855,-1.1989,-1.1989,-1.1989,0,-1.225,-1.2211,-1.2225,-1.2193,-1.2179,-1.2206,-1.2166,-1.2156,-1.2135,-1.2123,-1.2144,-1.2084,-1.2074,-1.2016,-1.1997,-1.1986,-1.1973,-1.1996,-1.1907,-1.1898,-1.189,-1.186,-1.1849,-1.1986,-1.1986,-1.1987,-1.1987,0,-1.2162,-1.2134,-1.2105,-1.2086,-1.207,-1.2033,-1.204,-1.2021,-1.2031,-1.2031,-1.1984,-1.1974,-1.1945,-1.1933,-1.1941,-1.1875,-1.1885,-1.1906,-1.194,-1.1876,-1.1847,-1.1836,-1.1982,-1.1983,-1.1984,-1.1985,0,0,-1.2059,-1.2049,-1.2038,-1.2028,-1.2016,-1.1993,-1.1957,-1.1932,-1.1914,-1.1898,-1.1865,-1.1825,-1.1843,-1.1828,-1.1835,-1.1806,-1.1739,-1.183,-1.1829,-1.181,-1.1661,-1.1643,-1.163,-1.175,-1.1748,-1.1746,-1.1661,0,-1.1984,-1.1924,-1.1936,-1.1876,-1.1848,-1.1873,-1.184,-1.1827,-1.1826,-1.18,-1.1798,-1.1767,-1.1796,-1.1787,-1.1759,-1.1753,-1.1709,-1.176,-1.1715,-1.1714,-1.1717,-1.1616,-1.1598,-1.1518,-1.1651,-1.1649,-1.1648,0,-1.1888,-1.1871,-1.1809,-1.1799,-1.1788,-1.1759,-1.1735,-1.1712,-1.1696,-1.1697,-1.168,-1.1692,-1.1652,-1.1689,-1.1632,-1.1666,-1.1649,-1.1643,-1.164,-1.1634,-1.1675,-1.1604,-1.1494,-1.148,-1.1631,-1.1632,-1.1633,0,-1.1816,-1.1777,-1.1734,-1.1726,-1.1714,-1.1693,-1.1686,-1.1674,-1.1657,-1.1635,-1.1624,-1.1597,-1.1581,-1.1559,-1.1562,-1.1589,-1.1502,-1.154,-1.1498,-1.1498,-1.1477,-1.1478,-1.1359,-1.147,-1.1471,-1.1471,-1.1471,0,-1.173,-1.169,-1.1701,-1.1674,-1.1629,-1.1642,-1.1596,-1.1592,-1.158,-1.155,-1.157,-1.1541,-1.1548,-1.1518,-1.152,-1.147,-1.1464,-1.1461,-1.1461,-1.1457,-1.1457,-1.1444,-1.1448,-1.1468,-1.1468,-1.1469,-1.1469,0,-1.164,-1.1647,-1.1602,-1.1595,-1.1592,-1.1559,-1.1551,-1.1524,-1.1525,-1.1487,-1.1478,-1.1477,-1.1443,-1.1445,-1.1406,-1.1407,-1.1345,-1.1353,-1.135,-1.1351,-1.1308,-1.1311,-1.1174,-1.1155,-1.1282,-1.1281,-1.128,0,-1.1584,-1.1554,-1.1544,-1.1527,-1.152,-1.1492,-1.1475,-1.1486,-1.1467,-1.1446,-1.142,-1.1389,-1.1364,-1.1307,-1.1301,-1.127,-1.1275,-1.123,-1.1271,-1.1267,-1.1271,-1.1271,-1.1267,-1.1221,-1.1219,-1.1218,-1.1217,0,-1.148,-1.1485,-1.1462,-1.1439,-1.1419,-1.1401,-1.1385,-1.1369,-1.1377,-1.1355,-1.1321,-1.1302,-1.1262,-1.1229,-1.1199,-1.1189,-1.1202,-1.1205,-1.1193,-1.1187,-1.1186,-1.1183,-1.1325,-1.1207,-1.1208,-1.1209,-1.121,-1.121,-1.1404,-1.1377,-1.1366,-1.1339,-1.1328,-1.1312,-1.1286,-1.1283,-1.1257,-1.1227,-1.1234,-1.1195,-1.1178,-1.114,-1.1127,-1.1094,-1.111,-1.1093,-1.1089,-1.1084,-1.1077,-1.1194,-1.1089,-1.1089,-1.109,-1.109,-1.109,0,-1.1299,-1.1293,-1.1268,-1.1245,-1.1223,-1.1242,-1.1224,-1.1203,-1.117,-1.1154,-1.1129,-1.1088,-1.1056,-1.1047,-1.1015,-1.099,-1.0995,-1.0981,-1.0981,-1.0977,-1.1067,-1.1079,-1.0977,-1.0977,-1.0977,-1.0977,-1.0977,-1.0977,-1.1242,-1.1197,-1.12,-1.1149,-1.1143,-1.1107,-1.1095,-1.1079,-1.1066,-1.1021,-1.0995,-1.0991,-1.0976,-1.0943,-1.0912,-1.091,-1.0896,-1.0878,-1.0878,-1.096,-1.0972,-1.0982,-1.0994,-1.0875,-1.0875,-1.0791,-1.079,-1.079]}]]